Regional Weather Roundup
Issued by NWS Cleveland, OH

Home | Current Version | Previous Version | Graphics & Text | Print | Product List | Glossary On
Versions: 1 2 3 4 5 6 7 8 9 10 11 12 13 14 15 16 17 18 19 20 21 22 23 24 25 26 27 28 29 30 31 32 33 34 35 36 37 38 39 40 41 42 43 44 45 46 47 48 49 50
000
ASUS41 KCLE 031110
RWRCLE
OHIO REGIONAL WEATHER ROUNDUP
NATIONAL WEATHER SERVICE CLEVELAND, OH
700 AM EDT WED JUN 03 2015

NOTE: "FAIR" INDICATES FEW OR NO CLOUDS BELOW 12,000 FEET WITH NO
SIGNIFICANT WEATHER AND/OR OBSTRUCTIONS TO VISIBILITY.

OHZ001>008-015>018-024>027-034-035-043-044-031200-
   NORTHWEST OHIO

CITY           SKY/WX    TMP DP  RH WIND       PRES   REMARKS
DEFIANCE       CLEAR     51  48  89 CALM      30.12R
FINDLAY        CLEAR     51  49  92 NW3       30.11R FOG
TOLEDO EXPRESS CLEAR     48  47  96 CALM      30.11S
TOLEDO EXEC    CLEAR     53  49  86 N3        30.13R
LIMA           CLOUDY    54  51  90 NE3       30.10S
$$

OHZ009>014-019>023-028>033-038-089-031200-
   NORTHEAST OHIO

CITY           SKY/WX    TMP DP  RH WIND       PRES   REMARKS
CLE-HOPKINS    MOSUNNY   55  51  86 E8        30.15R
CLE-LAKEFRONT  SUNNY     57  51  80 E7        30.13R
CUY CO. ARPT   NOT AVBL
LORAIN-ELYRIA  CLEAR     52  50  93 E5        30.14R
ASHTABULA      SUNNY     52  48  86 SE6       30.16F
AKRON-CANTON   MOSUNNY   53  50  89 E10       30.12S
WOOSTER        CLEAR     53  51  93 E7        30.12S
MANSFIELD      CLEAR     54  53  97 E7        30.10S
YOUNGSTOWN     MOSUNNY   51  49  92 E9        30.15R
$$

OHZ042-051>053-060>062-070>072-077>081-031200-
  SOUTHWEST OHIO

CITY           SKY/WX    TMP DP  RH WIND       PRES   REMARKS
CINC-COVINGTON CLOUDY    55  53  93 N5        30.08R FOG
CINC-LUNKEN    CLOUDY    54  53  97 CALM      30.09R FOG
HAMILTON       CLOUDY    55  53  93 NW3       30.09S FOG
DAYTON         CLOUDY    57  54  89 NW5       30.09S FOG
WRIGHT-PAT AFB CLOUDY    57  55  92 CALM      30.08R
DAYTON GENERAL CLOUDY    56  54  93 CALM      30.07S FOG
WILMINGTON     CLOUDY    57  53  86 NE3       30.07R FOG
$$

OHZ036-037-039>041-045>050-054>059-063>069-073>076-082>088-031200-
  CENTRAL AND SOUTHEAST OHIO

CITY           SKY/WX    TMP DP  RH WIND       PRES   REMARKS
COLUMBUS       CLOUDY    60  55  83 E5        30.07S
OSU AIRPORT    CLOUDY    60  55  83 CALM      30.08R
BOLTON FIELD   NOT AVBL
RICKENBACK AFB CLOUDY    59  55  86 NE3       30.06S
NEWARK         PTCLDY    60  54  80 NE6       30.07F
MARION         CLOUDY    57  53  86 NE5       30.10R
LANCASTER      CLOUDY    60  55  83 N3        30.07F
ZANESVILLE     NOT AVBL
NEW PHILLY     CLOUDY    57  52  83 E7        30.11S
$$


USA.gov is the U.S. government's official web portal to all federal, state and local government web resources and services.